Regional Weather Roundup
Issued by NWS

Home | Current Version | Previous Version | Text Only | Print | Product List | Glossary On
Versions: 1 2 3 4 5 6 7 8 9 10 11 12 13 14 15 16 17 18 19 20 21 22 23 24 25 26 27 28 29 30 31 32 33 34 35 36 37 38 39 40 41 42 43 44 45 46 47 48 49 50
000
ASUS45 KSLC 061610
RWRUT

UTAH REGIONAL WEATHER ROUNDUP
NATIONAL WEATHER SERVICE SALT LAKE CITY UT
900 AM MST SAT FEB 06 2016

UTZ001>011-023>025-061700-

NORTHERN UTAH

CITY           SKY/WX    TMP DP  RH WIND       PRES   REMARKS
BRIGHAM CITY     N/A     14  12  89 CALM      30.55S VSB 3/4
HILL AFB       MOSUNNY   24  10  55 SE12      30.51S WCI  13
LOGAN          MOSUNNY   20  18  92 CALM      30.52R FOG
OGDEN          MOSUNNY   22  16  78 S5        30.53R WCI  16
PROVO AIRPORT  MOSUNNY    9   7  92 CALM      30.55F
SALT LAKE CITY MOSUNNY   27  19  72 SE10      30.54R WCI  17
VERNAL         CLOUDY     5   3  91 S3        30.56R
WENDOVER       PTSUNNY   19  16  86 CALM      30.53S
HEBER CITY     FOG        3   0  85 CALM      30.53S VSB 1/4
WEST JORDAN    SUNNY     25  19  80 W3        30.53R

$$

UTZ012>022-026-027-061700-

SOUTHERN/CENTRAL UTAH

CITY           SKY/WX    TMP DP  RH WIND       PRES   REMARKS
BLANDING       MOSUNNY   19  10  67 CALM      30.59R
BRYCE CANYON   MOSUNNY    7   1  76 NW6       30.48S WCI  -3
CEDAR CITY     MOSUNNY   12  12 100 CALM      30.45F
DELTA            N/A      3   0  88 CALM      30.55S VSB 3/4
HANKSVILLE     CLOUDY    18  16  93 W5        30.65F WCI  11
MILFORD        FOG       -1  -1 100 CALM      30.52S VSB 1/4
MOAB/CYNLANDS  CLOUDY    17  16  95 CALM      30.61S
PRICE          MOSUNNY   15  11  83 CALM      30.51S
ST GEORGE      MOSUNNY   32  21  64 CALM      30.55S
KANAB          SUNNY     32  19  59 N13       30.54S WCI  22

$$

REGIONAL REPORTS     COLORADO/ARIZONA

CITY           SKY/WX    TMP DP  RH WIND       PRES   REMARKS
CRAIG, CO      CLOUDY    -5  -7  91 CALM      30.50R
GRAND JUNCTION CLOUDY     6   6 100 CALM      30.60S
RIFLE          CLOUDY     6   2  83 CALM      30.58F
MONTROSE       CLOUDY    11   3  70 SE7       30.59S WCI   0
CORTEZ         CLOUDY    15   6  67 E9        30.52R WCI   3
PAGE, AZ       SUNNY     31  22  69 CALM      30.55S
GRAND CANYON   SUNNY     26  10  50 NE7       30.47S WCI  18
KINGMAN        SUNNY     40  32  73 N5        30.43S
FLAGSTAFF      MOSUNNY   17  12  80 CALM      30.47R

$$

REGIONAL REPORTS    NEVADA/IDAHO/WYOMING

CITY           SKY/WX    TMP DP  RH WIND       PRES   REMARKS
LAS VEGAS, NV  SUNNY     44  26  49 CALM      30.44R
ELY            PTSUNNY   10   4  76 S18       30.48S WCI  -8
ELKO           MOSUNNY    5   2  87 W6        30.53S WCI  -6
POCATELLO, ID  CLOUDY    17  14  88 N5        30.44S WCI  10
BURLEY         CLOUDY    31  24  75 SW14      30.40S WCI  21
EVANSTON, WY   CLOUDY    16  12  84 SW12      30.43R WCI   3
ROCK SPRINGS   CLOUDY    20  14  77 E3        30.40R

$$



USA.gov is the U.S. government's official web portal to all federal, state and local government web resources and services.